timestamp,surface_pressure_avg,surface_temp_avg,battery_voltage,lat,long
2019-07-02 00:00:00+00:00,353.2845,9.8,12.89,47.84626,-54.09684
2019-07-02 00:10:00+00:00,347.213,9.8,12.81,47.84626,-54.09684
2019-07-02 00:20:00+00:00,343.9429,9.87,12.89,47.84626,-54.09684
2019-07-02 00:30:00+00:00,339.623,9.87,12.89,47.84626,-54.09684
2019-07-02 00:40:00+00:00,330.293,9.8,12.97,47.84626,-54.09684
2019-07-02 00:50:00+00:00,320.0797,9.8,12.97,47.84626,-54.09684
2019-07-02 01:00:00+00:00,316.5314,9.77,12.89,47.84626,-54.09684
2019-07-02 01:10:00+00:00,312.8714,9.7,12.81,47.84626,-54.09684
2019-07-02 01:20:00+00:00,305.388,9.7,12.89,47.84626,-54.09684
2019-07-02 01:30:00+00:00,297.588,9.6,12.89,47.84626,-54.09684
2019-07-02 01:40:00+00:00,293.2681,9.51,12.89,47.84626,-54.09684
2019-07-02 01:50:00+00:00,287.898,9.5,12.89,47.84626,-54.09684
2019-07-02 02:00:00+00:00,275.1847,9.5,12.81,47.84626,-54.09684
2019-07-02 02:10:00+00:00,265.9948,9.49,12.81,47.84626,-54.09684
2019-07-02 02:20:00+00:00,261.2247,9.4,12.89,47.84626,-54.09684
2019-07-02 02:30:00+00:00,249.5731,9.4,12.89,47.84626,-54.09684
2019-07-02 02:40:00+00:00,237.6931,9.4,12.89,47.84626,-54.09684
2019-07-02 02:50:00+00:00,234.0581,9.4,12.89,47.84626,-54.09684
2019-07-02 03:00:00+00:00,227.1697,9.3,12.81,47.84626,-54.09684
2019-07-02 03:10:00+00:00,218.3231,9.3,12.73,47.84626,-54.09684
2019-07-02 03:20:00+00:00,213.2714,9.3,12.81,47.84626,-54.09684
2019-07-02 03:30:00+00:00,208.7264,9.3,12.81,47.84626,-54.09684
2019-07-02 03:40:00+00:00,203.9648,9.3,12.81,47.84626,-54.09684
2019-07-02 03:50:00+00:00,203.2564,9.3,12.89,47.84626,-54.09684
2019-07-02 04:00:00+00:00,200.3998,9.36,12.81,47.84626,-54.09684
2019-07-02 04:10:00+00:00,192.3265,9.79,12.73,47.84626,-54.09684
2019-07-02 04:20:00+00:00,189.5681,9.7,12.81,47.84626,-54.09684
2019-07-02 04:30:00+00:00,194.0215,9.68,12.81,47.84626,-54.09684
2019-07-02 04:40:00+00:00,191.8815,10.4,12.81,47.84626,-54.09684
2019-07-02 04:50:00+00:00,183.8015,10.1,12.81,47.84626,-54.09684
2019-07-02 05:00:00+00:00,186.7315,10.0,12.73,47.84626,-54.09684
2019-07-02 05:10:00+00:00,191.1331,10.02,12.65,47.84626,-54.09684
2019-07-02 05:20:00+00:00,186.4814,10.3,12.73,47.84626,-54.09684
2019-07-02 05:30:00+00:00,183.2965,10.29,12.81,47.84626,-54.09684
2019-07-02 05:40:00+00:00,186.9615,10.3,12.81,47.84626,-54.09684
2019-07-02 05:50:00+00:00,191.7848,10.2,12.81,47.84626,-54.09684
2019-07-02 06:00:00+00:00,194.9798,10.57,12.73,47.84626,-54.09684
2019-07-02 06:10:00+00:00,198.3715,10.9,12.65,47.84626,-54.09684
2019-07-02 06:20:00+00:00,200.1598,9.6,12.73,47.84626,-54.09684
2019-07-02 06:30:00+00:00,200.1764,9.3,12.73,47.84626,-54.09684
2019-07-02 06:40:00+00:00,204.5964,9.4,12.81,47.84626,-54.09684
2019-07-02 06:50:00+00:00,213.8581,9.3,12.81,47.84626,-54.09684
2019-07-02 07:00:00+00:00,216.298,9.2,12.73,47.84626,-54.09684
2019-07-02 07:10:00+00:00,219.1814,9.1,12.65,47.84626,-54.09684
2019-07-02 07:20:00+00:00,229.1798,9.0,12.73,47.84626,-54.09684
2019-07-02 07:30:00+00:00,237.2198,9.0,12.73,47.84626,-54.09684
2019-07-02 07:40:00+00:00,237.4481,9.2,12.81,47.84626,-54.09684
2019-07-02 07:50:00+00:00,241.5998,9.3,12.81,47.84626,-54.09684
2019-07-02 08:00:00+00:00,254.6581,9.4,12.73,47.84626,-54.09684
2019-07-02 08:10:00+00:00,262.1147,9.28,12.65,47.84626,-54.09684
2019-07-02 08:20:00+00:00,263.4781,9.28,12.73,47.84626,-54.09684
2019-07-02 08:30:00+00:00,269.7531,9.2,12.73,47.84626,-54.09684
2019-07-02 08:40:00+00:00,281.8114,9.1,12.81,47.84626,-54.09684
2019-07-02 08:50:00+00:00,285.3647,9.1,12.81,47.84626,-54.09684
2019-07-02 09:00:00+00:00,287.4464,9.08,12.73,47.84626,-54.09684
2019-07-02 09:10:00+00:00,294.4564,9.0,12.65,47.84626,-54.09684
2019-07-02 09:20:00+00:00,305.0047,9.0,12.73,47.84626,-54.09684
2019-07-02 09:30:00+00:00,311.0913,9.0,12.73,47.84626,-54.09684
2019-07-02 09:40:00+00:00,316.2247,8.99,12.81,47.84626,-54.09684
2019-07-02 09:50:00+00:00,319.3781,8.9,12.81,47.84626,-54.09684
2019-07-02 10:00:00+00:00,330.7863,8.84,12.73,47.84626,-54.09684
2019-07-02 10:10:00+00:00,339.863,8.8,12.65,47.84626,-54.09684
2019-07-02 10:20:00+00:00,337.6979,8.8,12.73,47.84626,-54.09684
2019-07-02 10:30:00+00:00,333.0779,8.79,12.81,47.84626,-54.09684
2019-07-02 10:40:00+00:00,342.0912,8.79,12.81,47.84626,-54.09684
2019-07-02 10:50:00+00:00,344.7596,8.8,12.81,47.84626,-54.09684
2019-07-02 11:00:00+00:00,338.8812,8.8,12.81,47.84626,-54.09684
2019-07-02 11:10:00+00:00,338.2964,8.8,12.81,47.84626,-54.09684
2019-07-02 11:20:00+00:00,341.273,8.8,13.05,47.84626,-54.09684
2019-07-02 11:30:00+00:00,340.5731,8.8,13.29,47.84626,-54.09684
2019-07-02 11:40:00+00:00,337.3663,8.82,13.68,47.84626,-54.09684
2019-07-02 11:50:00+00:00,336.088,8.85,13.84,47.84626,-54.09684
2019-07-02 12:00:00+00:00,336.3162,8.88,14.0,47.84626,-54.09684
2019-07-02 12:10:00+00:00,332.9396,8.9,14.16,47.84626,-54.09684
2019-07-02 12:20:00+00:00,327.4263,8.9,15.35,47.84626,-54.09684
2019-07-02 12:30:00+00:00,322.8496,8.9,14.4,47.84626,-54.09684
2019-07-02 12:40:00+00:00,321.0665,8.9,14.4,47.84626,-54.09684
2019-07-02 12:50:00+00:00,319.108,8.9,15.51,47.84626,-54.09684
2019-07-02 13:00:00+00:00,308.4713,8.9,14.72,47.84626,-54.09684
2019-07-02 13:10:00+00:00,301.9914,8.9,14.48,47.84626,-54.09684
2019-07-02 13:20:00+00:00,300.1913,8.9,15.11,47.84626,-54.09684
2019-07-02 13:30:00+00:00,297.5914,8.92,14.56,47.84626,-54.09684
2019-07-02 13:40:00+00:00,284.528,9.39,14.4,47.84626,-54.09684
2019-07-02 13:50:00+00:00,276.1531,9.26,14.32,47.84626,-54.09684
2019-07-02 14:00:00+00:00,273.8797,8.7,14.24,47.84626,-54.09684
2019-07-02 14:10:00+00:00,263.0531,8.99,14.16,47.84626,-54.09684
2019-07-02 14:20:00+00:00,248.8464,9.0,14.32,47.84626,-54.09684
2019-07-02 14:30:00+00:00,245.5681,8.8,14.16,47.84626,-54.09684
2019-07-02 14:40:00+00:00,239.5681,8.72,14.08,47.84626,-54.09684
2019-07-02 14:50:00+00:00,224.9464,8.87,14.08,47.84626,-54.09684
2019-07-02 15:00:00+00:00,218.4215,8.99,14.0,47.84626,-54.09684
2019-07-02 15:10:00+00:00,219.8115,9.0,13.84,47.84626,-54.09684
2019-07-02 15:20:00+00:00,211.4081,9.0,13.92,47.84626,-54.09684
2019-07-02 15:30:00+00:00,198.7481,9.15,13.92,47.84626,-54.09684
2019-07-02 15:40:00+00:00,197.6148,9.22,13.84,47.84626,-54.09684
2019-07-02 15:50:00+00:00,200.2165,9.2,13.84,47.84626,-54.09684
2019-07-02 16:00:00+00:00,193.4248,9.27,13.84,47.84626,-54.09684
2019-07-02 16:10:00+00:00,185.3931,9.34,13.84,47.84626,-54.09684
2019-07-02 16:20:00+00:00,185.7098,9.3,14.0,47.84626,-54.09684
2019-07-02 16:30:00+00:00,185.7731,9.1,14.0,47.84626,-54.09684
2019-07-02 16:40:00+00:00,180.9048,9.25,14.08,47.84626,-54.09684
2019-07-02 16:50:00+00:00,182.3665,9.3,14.08,47.84626,-54.09684
2019-07-02 17:00:00+00:00,187.2481,9.3,14.0,47.84626,-54.09684
2019-07-02 17:10:00+00:00,187.3498,9.31,14.08,47.84626,-54.09684
2019-07-02 17:20:00+00:00,189.3431,9.4,14.08,47.84626,-54.09684
2019-07-02 17:30:00+00:00,190.9314,9.4,14.08,47.84626,-54.09684
2019-07-02 17:40:00+00:00,191.7014,9.4,14.16,47.84626,-54.09684
2019-07-02 17:50:00+00:00,196.7364,9.3,14.24,47.84626,-54.09684
2019-07-02 18:00:00+00:00,202.4298,9.3,14.08,47.84626,-54.09684
2019-07-02 18:10:00+00:00,203.3381,9.1,13.92,47.84626,-54.09684
2019-07-02 18:20:00+00:00,205.0681,8.95,13.92,47.84626,-54.09684
2019-07-02 18:30:00+00:00,213.7831,8.9,13.92,47.84626,-54.09684
2019-07-02 18:40:00+00:00,220.3131,8.9,13.92,47.84626,-54.09684
2019-07-02 18:50:00+00:00,220.6014,8.84,13.92,47.84626,-54.09684
2019-07-02 19:00:00+00:00,225.7181,8.8,13.84,47.84626,-54.09684
2019-07-02 19:10:00+00:00,232.9181,8.7,13.84,47.84626,-54.09684
2019-07-02 19:20:00+00:00,238.0947,8.7,13.92,47.84626,-54.09684
2019-07-02 19:30:00+00:00,244.1047,8.7,14.0,47.84626,-54.09684
2019-07-02 19:40:00+00:00,250.7681,8.7,14.0,47.84626,-54.09684
2019-07-02 19:50:00+00:00,256.0414,8.76,14.0,47.84626,-54.09684
2019-07-02 20:00:00+00:00,260.8598,8.7,13.92,47.84626,-54.09684
2019-07-02 20:10:00+00:00,270.2181,8.6,13.84,47.84626,-54.09684
2019-07-02 20:20:00+00:00,277.2981,8.6,14.0,47.84626,-54.09684
2019-07-02 20:30:00+00:00,285.8781,8.6,14.08,47.84626,-54.09684
2019-07-02 20:40:00+00:00,291.848,8.6,14.0,47.84626,-54.09684
2019-07-02 20:50:00+00:00,299.408,8.6,14.0,47.84626,-54.09684
2019-07-02 21:00:00+00:00,306.498,8.6,13.92,47.84626,-54.09684
2019-07-02 21:10:00+00:00,315.8664,8.5,13.84,47.84626,-54.09684
2019-07-02 21:20:00+00:00,321.0812,8.58,13.84,47.84626,-54.09684
2019-07-02 21:30:00+00:00,331.2863,8.6,13.84,47.84626,-54.09684
2019-07-02 21:40:00+00:00,339.188,8.6,13.84,47.84626,-54.09684
2019-07-02 21:50:00+00:00,344.098,8.1,13.92,47.84626,-54.09684
2019-07-02 22:00:00+00:00,348.9397,8.19,13.76,47.84626,-54.09684
2019-07-02 22:10:00+00:00,355.1281,8.1,13.68,47.84626,-54.09684
2019-07-02 22:20:00+00:00,360.4963,7.9,13.6,47.84626,-54.09684
2019-07-02 22:30:00+00:00,363.3179,7.9,13.6,47.84626,-54.09684
2019-07-02 22:40:00+00:00,371.6063,7.94,13.53,47.84626,-54.09684
2019-07-02 22:50:00+00:00,375.4811,7.94,13.53,47.84626,-54.09684
2019-07-02 23:00:00+00:00,376.308,8.0,13.37,47.84626,-54.09684
2019-07-02 23:10:00+00:00,381.5113,8.0,13.29,47.84626,-54.09684
2019-07-02 23:20:00+00:00,386.0663,7.98,13.21,47.84626,-54.09684
2019-07-02 23:30:00+00:00,385.9996,8.0,13.21,47.84626,-54.09684
2019-07-02 23:40:00+00:00,384.2629,7.9,13.21,47.84626,-54.09684
2019-07-02 23:50:00+00:00,387.988,7.9,13.21,47.84626,-54.09684
